国际通讯卫星 4A-F2星 (INTELSAT 4A-F2)

导读 | 豆包AI

INTELSAT 4A-F2是国际通信卫星组织(ITSO)旗下的通信卫星,于1976年1月29日发射升空。它属于Intelsat 4A系列,由美国休斯空间与通信公司基于HS-353平台制造,发射质量约1515千克,设计寿命为7年,配置20路C频段转发器,主要为全球范围提供商业通信服务,是20世纪70年代国际卫星通信网络的重要组成部分,推动了跨洋通信的普及发展。

基本信息
目录编号:
8620
目录名称:
INTELSAT 4A-F2
国际标识:
1976-010A
轨道中心:
EARTH
卫星名称:
国际通讯卫星 4A-F2星
卫星全名:
国际通讯卫星 4A-F2星 (INTELSAT 4A-F2)
卫星状态:
在轨 (已飞行18328 天)
发射日期:
1976-01-29 UTC
国别 :
(ITSO)
星等 :
--
轨道信息
数据来源 国际轨道数据 AOE轨道数据
星历时间 2026-04-03T18:59:13+0800
16小时前
查看轨道信息
2026-03-29T10:00:00+0800
6天前
查看轨道信息
半长轴 42327.686km 42327.488km
偏心率 0.0006196 0.000621
轨道倾角 8.059° 8.071°
近地点辐角 315.860° 316.671°
升交点赤经 304.407° 304.442°
平近点角 69.421° 299.663°
近地点 35923.322km 35923.065km
远地点 35975.776km 35975.637km
周期 1444.430分钟 1444.420分钟
每日圈数 0.996933 0.99694
详细信息
卫星平台:
HS-353
平衡模式:
自旋稳定
覆盖范围:
全球
运营商:
国际卫星通信公司
运营商所在国:
美国
制造商(研发单位):
休斯公司
制造商所在国:
美国
使用方式:
暂无
卫星简介
从1965年4月至1984年3月,国际通信卫星组织发射了5代、6种不同性能的卫星共计35颗,除6颗卫星因运载火箭和远地点发动机故障而发射失败外,其余29颗卫星均被送到了预定的静止轨道位置。1984年8月前后,国际通信卫星组织利用部署在大西洋、太平洋、印度洋上空的15颗国际通信卫星,为遍布世界各地170多个国家或地区提供电话、电传、电报、电视和数据传输等电信业务;该卫星已退役。
2D轨道图
3D轨道图
轨道高度分析图
轨道倾角分析图
轨道综合分析图
查看轨道综合分析图